Regional Weather Roundup
Issued by NWS

Home | Current Version | Previous Version | Graphics & Text | Print | Product List | Glossary On
Versions: 1 2 3 4 5 6 7 8 9 10 11 12 13 14 15 16 17 18 19 20 21 22 23 24 25 26 27 28 29 30 31 32 33 34 35 36 37 38 39 40 41 42 43 44 45 46 47 48 49
000
ASUS45 KBOU 202107
RWRCO

WEATHER ROUNDUP FOR COLORADO
NATIONAL WEATHER SERVICE DENVER/BOULDER CO
200 PM MST SAT DEC 20 2014

NOTE: "FAIR" INDICATES FEW OR NO CLOUDS BELOW 12000 FEET WITH NO
SIGNIFICANT WEATHER AND/OR OBSTRUCTIONS TO VISIBILITY.

COZ001>005-013-030-031-202200-
...NORTHWEST COLORADO...

CITY           SKY/WX    TMP DP  RH WIND       PRES   REMARKS
CRAIG          CLOUDY    33  25  72 E5        30.07F WCI  29
HAYDEN         CLOUDY    28  21  74 SE7       30.07S WCI  21
MEEKER         CLOUDY    33  24  69 CALM      30.06F
MOUNT WERNER   NOT AVBL
STEAMBOAT SPGS CLOUDY    27  23  82 CALM      30.07S
WALDEN         CLOUDY    30  21  69 S12       30.01F WCI  21
$$

COZ006>008-011-202200-
...WEST CENTRAL VALLEYS...

CITY           SKY/WX    TMP DP  RH WIND       PRES   REMARKS
GRAND JUNCTION PTSUNNY   38  25  59 CALM      30.12F
MONTROSE       SUNNY     39  22  50 NW7       30.11S
EAGLE          PTSUNNY   30  21  69 CALM      30.11F
RIFLE          CLOUDY    34  23  64 CALM      30.11F
DELTA          MOSUNNY   41  24  51 W5        30.11S
NUCLA          SUNNY     39  27  60 NW6       30.14S
$$

COZ017>023-064>068-202200-
...SOUTHWEST COLORADO...

CITY           SKY/WX    TMP DP  RH WIND       PRES   REMARKS
DURANGO        SUNNY     39  24  55 S9        30.08F
CORTEZ         SUNNY     40  28  62 W5        30.11F
PAGOSA SPRINGS SUNNY     37  20  50 CALM      30.07F
TELLURIDE      MOSUNNY   36  22  58 W7        30.09F
WOLF CREEK PAS MOSUNNY   23  12  63 MISG      30.08F
$$

COZ009-010-012-014-032>034-037-058>063-202200-
...CENTRAL COLORADO...

CITY           SKY/WX    TMP DP  RH WIND       PRES   REMARKS
ASPEN          CLOUDY    30  18  60 N5        30.06S WCI  25
BUENA VISTA    MOSUNNY   43  14  31 W16G25    29.99S
COPPER MTN     SNOW      23  18  80 W16       30.04F VSB<1/4 WCI  10
BERTHOUD PASS  CLOUDY    12   5  73 MISG      30.00S
COTTONWOOD PAS MOSUNNY   34  14  44 W13G21    30.02S WCI  25
GUNNISON       CLOUDY    25  10  54 CALM      30.13F
KREMMLING      CLOUDY    28  18  64 W3        30.09S
LEADVILLE      CLOUDY    29  15  56 NW9       30.02S WCI  20
MONARCH PASS   CLOUDY    18  14  86 W41       30.12S WCI  -5
SALIDA         MOSUNNY   45  18  33 SW22G29   30.07S
SUNLIGHT       FLURRIES  27  23  86 CALM      30.09S
WILKERSON PASS MOSUNNY   30  14  51 CALM      30.05S
$$

COZ069>075-202200-
...SAN LUIS VALLEY/SANGRE DE CRISTO MOUNTAINS...

CITY           SKY/WX    TMP DP  RH WIND       PRES   REMARKS
ALAMOSA        SUNNY     36  13  38 CALM      30.04F
LA VETA PASS   SUNNY     32  14  47 SW6       30.02F WCI  26
SAGUACHE       MOSUNNY   36  14  41 S5        30.06S
$$

COZ035-036-038>040-202200-
...NORTHERN COLORADO FRONT RANGE...

CITY           SKY/WX    TMP DP  RH WIND       PRES   REMARKS
DENVER INTL AP MOSUNNY   46  17  31 CALM      29.93F
DMNS CITY PARK   N/A     49  16  27 NE2G8     29.92F
AURORA         MOSUNNY   48  19  30 NE5       29.94F
FRONT RANGE AP NOT AVBL
ERIE MUNI ARPT   N/A     49  17  27 E3        29.93F
BOULDER MUN AP SUNNY     50  19  29 NE5       29.92F
CENTENNIAL     PTSUNNY   48  19  31 N5        29.93F
BROOMFIELD     PTSUNNY   52  18  25 NW13G30   29.92F
FORT COLLINS   SUNNY     48  19  32 NE3       29.95S
LONGMONT       SUNNY     53  20  26 E7        29.95S
$$

COZ041-046-047-076>085-087-088-202200-
...PIKES PEAK/PALMER DIVIDE AND SOUTHERN FOOTHILLS...

CITY           SKY/WX    TMP DP  RH WIND       PRES   REMARKS
COLO. SPRINGS  MOSUNNY   52  15  23 S9        29.93F
A. F. ACADEMY  SUNNY     51  14  22 W5        29.92F
ELLICOTT       NOT AVBL
FALCON         SUNNY     50  13  22 CALM      29.96S
FORT CARSON    SUNNY     51  17  26 E8        29.92F
LIMON          MOSUNNY   51  12  21 S9        29.94F
MONUMENT HILL  SUNNY     45  14  29 CALM      29.94F
TRINIDAD       PTSUNNY   50  13  22 SE8       29.95F
$$

COZ042>045-048>051-090-091-202200-
...NORTHEAST COLORADO...

CITY           SKY/WX    TMP DP  RH WIND       PRES   REMARKS
GREELEY ARPT   SUNNY     46  21  36 E9        29.92F
AKRON          PTSUNNY   44  19  36 CALM      29.95F
BURLINGTON     PTSUNNY   50  30  46 S3        29.95F
WRAY           CLOUDY    42  32  69 SW5       29.96S
STERLING       PTSUNNY   34  30  86 S3        29.95F
HOLYOKE        PTSUNNY   43  32  65 SW7       29.96S
FORT MORGAN    PTSUNNY   33  25  71 W3        29.96F
$$

COZ086-089-092>099-202200-
...SOUTHEAST COLORADO...

CITY           SKY/WX    TMP DP  RH WIND       PRES   REMARKS
PUEBLO         SUNNY     55  18  23 SE9       29.91F
LA JUNTA       PTSUNNY   43  26  51 S5        29.94F
LAMAR          CLOUDY    44  25  47 S3        29.94F
SPRINGFIELD      N/A     51  21  30 S6        29.95F
$$



USA.gov is the U.S. government's official web portal to all federal, state and local government web resources and services.